Location: *
(51.1248°S, 108.4023°W)
Time: 21:14:27
(UTC+00:00)

Cosmos 1536 - Pass Details

Date: 15 June 2021
Orbit: 541 x 556 km, 82.5° (Epoch: 04 August)

Event Time Altitude Azimuth Distance (km) Brightness Sun altitude
Exits shadow 12:50:36 65° 219° (SW) 633 2.8 -21.6°
Maximum altitude 12:51:07 76° 279° (W) 592 2.7 -21.5°
Drops below altitude 10° 12:55:13 10° 3° (N) 1,858 5.7 -20.9°
Sets 12:57:22 0° 4° (N) 2,744 6.6 -20.5°
